KO4DYK Weather Reports


Display with metric or nautical units.
time (UTC)temp
F
wind
direction
speed
MPH
gust
MPH
rain 1hr
in
rain 24hr
in
rain mn
in
humidity
%
barometer
mb
20260510190405 84 92 1.0 5.0 0.00 0.00 0.00 52 1020.4
20260510185901 83 182 1.0 2.0 0.00 0.00 0.00 50 1020.3
20260510185359 86 139 0.0 0.0 0.00 0.00 0.00 50 1020.5
20260510184856 87 188 0.0 0.0 0.00 0.00 0.00 49 1020.4
20260510184353 88 170 1.0 1.0 0.00 0.00 0.00 47 1020.3
20260510183852 87 165 0.0 1.0 0.00 0.00 0.00 45 1020.4
20260510183349 85 164 0.0 3.0 0.00 0.00 0.00 48 1020.4
20260510182844 86 156 3.0 3.0 0.00 0.00 0.00 46 1020.3
20260510182341 85 167 0.0 0.0 0.00 0.00 0.00 51 1020.3
20260510181836 87 206 1.0 3.0 0.00 0.00 0.00 48 1020.3
20260510181334 88 168 1.0 5.0 0.00 0.00 0.00 45 1020.2
20260510180830 88 134 2.0 2.0 0.00 0.00 0.00 47 1020.3
20260510180327 87 170 1.0 3.0 0.00 0.00 0.00 47 1020.4
20260510175824 86 170 0.0 3.0 0.00 0.00 0.00 50 1020.4
20260510175320 86 160 0.0 0.0 0.00 0.00 0.00 51 1020.7
20260510174816 84 168 1.0 3.0 0.00 0.00 0.00 53 1020.8
20260510174314 83 199 3.0 5.0 0.00 0.00 0.00 53 1020.8
20260510173810 85 178 0.0 0.0 0.00 0.00 0.00 49 1020.9
20260510173306 84 165 0.0 0.0 0.00 0.00 0.00 51 1021.0
20260510172802 81 166 0.0 0.0 0.00 0.00 0.00 61 1021.0
20260510172258 82 138 0.0 0.0 0.00 0.00 0.00 55 1021.0
20260510171755 84 124 0.0 5.0 0.00 0.00 0.00 55 1021.0
20260510171252 84 134 1.0 3.0 0.00 0.00 0.00 53 1021.1
20260510170749 84 73 3.0 5.0 0.00 0.00 0.00 55 1021.1
20260510170245 85 91 1.0 3.0 0.00 0.00 0.00 56 1021.2
20260510165741 85 142 0.0 1.0 0.00 0.00 0.00 54 1021.0
20260510165237 86 146 1.0 1.0 0.00 0.00 0.00 53 1021.1
20260510164734 84 138 0.0 2.0 0.00 0.00 0.00 58 1021.2
20260510164232 84 178 1.0 2.0 0.00 0.00 0.00 58 1021.1
20260510163732 83 159 1.0 3.0 0.00 0.00 0.00 60 1021.3
20260510163228 82 173 3.0 6.0 0.00 0.00 0.00 59 1021.2
20260510162727 82 235 2.0 2.0 0.00 0.00 0.00 63 1021.2
20260510162225 80 202 1.0 5.0 0.00 0.00 0.00 67 1021.1
20260510161720 81 55 3.0 6.0 0.00 0.00 0.00 66 1021.1
20260510161217 82 153 1.0 3.0 0.00 0.00 0.00 66 1021.1
20260510160714 82 168 0.0 5.0 0.00 0.00 0.00 67 1021.1
20260510160209 81 149 0.0 1.0 0.00 0.00 0.00 68 1021.1
20260510155705 80 170 1.0 3.0 0.00 0.00 0.00 72 1021.1
20260510155201 80 151 1.0 6.0 0.00 0.00 0.00 73 1021.0
20260510154657 81 187 2.0 2.0 0.00 0.00 0.00 70 1021.0
20260510154153 82 141 0.0 2.0 0.00 0.00 0.00 70 1021.0
20260510153648 81 162 0.0 1.0 0.00 0.00 0.00 74 1021.1
20260510153145 79 148 1.0 1.0 0.00 0.00 0.00 73 1021.0
20260510152642 78 185 1.0 2.0 0.00 0.00 0.00 77 1021.0
20260510152138 77 44 6.0 7.0 0.00 0.00 0.00 77 1021.1
20260510151634 78 176 2.0 2.0 0.00 0.00 0.00 76 1021.1
20260510151133 78 76 5.0 6.0 0.00 0.00 0.00 76 1021.0
20260510150628 78 164 1.0 2.0 0.00 0.00 0.00 77 1020.9
20260510150124 77 71 1.0 2.0 0.00 0.00 0.00 79 1020.9
20260510145620 77 27 2.0 5.0 0.00 0.00 0.00 80 1021.1
20260510145117 78 298 1.0 2.0 0.00 0.00 0.00 79 1020.9
20260510144613 77 136 0.0 8.0 0.00 0.00 0.00 80 1021.2
20260510144109 78 105 0.0 2.0 0.00 0.00 0.00 78 1021.0
20260510143605 78 158 0.0 3.0 0.00 0.00 0.00 79 1020.9
20260510143101 77 212 0.0 0.0 0.00 0.00 0.00 79 1020.9
20260510142558 77 113 0.0 1.0 0.00 0.00 0.00 80 1020.8
20260510142055 77 135 0.0 1.0 0.00 0.00 0.00 80 1020.7
20260510141552 76 168 1.0 1.0 0.00 0.00 0.00 83 1020.8
20260510141050 76 200 1.0 2.0 0.00 0.00 0.00 82 1020.8
20260510140545 75 137 0.0 1.0 0.00 0.00 0.00 85 1020.8
20260510140045 75 180 3.0 3.0 0.00 0.00 0.00 84 1021.0
20260510135541 74 151 1.0 2.0 0.00 0.00 0.00 87 1020.9
20260510135037 74 117 3.0 3.0 0.00 0.00 0.00 88 1020.9
20260510134534 73 162 0.0 2.0 0.00 0.00 0.00 91 1020.9
20260510134031 72 135 0.0 1.0 0.00 0.00 0.00 92 1020.8
20260510133527 71 147 0.0 0.0 0.00 0.00 0.00 94 1020.8
20260510133023 70 48 2.0 2.0 0.00 0.00 0.00 95 1020.9
20260510132520 70 124 1.0 1.0 0.00 0.00 0.00 97 1020.9
20260510132017 69 151 0.0 1.0 0.00 0.00 0.00 99 1020.8
20260510131515 69 153 0.0 0.0 0.00 0.00 0.00 99 1020.7
20260510131012 66 155 0.0 0.0 0.00 0.00 0.00 99 1020.8
20260510130508 65 144 0.0 1.0 0.00 0.00 0.00 99 1020.7
20260510130006 63 153 0.0 0.0 0.00 0.00 0.00 99 1020.5
20260510125501 62 139 0.0 2.0 0.00 0.00 0.00 99 1020.8
20260510124958 61 78 2.0 2.0 0.00 0.00 0.00 99 1020.5
20260510124454 60 136 1.0 1.0 0.00 0.00 0.00 99 1020.7
20260510123952 59 142 1.0 1.0 0.00 0.00 0.00 99 1020.5
20260510123447 59 137 1.0 1.0 0.00 0.00 0.00 99 1020.6
20260510122943 59 157 0.0 0.0 0.00 0.00 0.00 99 1020.6
20260510122439 58 162 0.0 0.0 0.00 0.00 0.00 99 1020.7
20260510121935 58 163 0.0 0.0 0.00 0.00 0.00 99 1020.6
20260510121433 57 163 0.0 0.0 0.00 0.00 0.00 99 1020.5
20260510120930 56 163 0.0 0.0 0.00 0.00 0.00 99 1020.4
20260510120427 55 163 0.0 0.0 0.00 0.00 0.00 99 1020.5
20260510115923 54 163 0.0 0.0 0.00 0.00 0.00 99 1020.2
20260510115420 54 168 0.0 0.0 0.00 0.00 0.00 99 1020.2
20260510114916 54 163 0.0 0.0 0.00 0.00 0.00 99 1020.0
20260510114414 54 163 0.0 0.0 0.00 0.00 0.00 99 1020.2
20260510113914 53 159 0.0 1.0 0.00 0.00 0.00 99 1020.1
20260510113410 53 150 0.0 1.0 0.00 0.00 0.00 99 1019.9
20260510112907 53 82 1.0 2.0 0.00 0.00 0.00 99 1019.7
20260510112404 52 132 1.0 1.0 0.00 0.00 0.00 99 1019.6
20260510111900 52 117 1.0 2.0 0.00 0.00 0.00 99 1019.4
20260510111356 53 119 1.0 1.0 0.00 0.00 0.00 99 1019.4
20260510110852 53 172 0.0 0.0 0.00 0.00 0.00 99 1019.4
20260510110349 53 178 0.0 0.0 0.00 0.00 0.00 99 1019.3
20260510105845 52 175 0.0 0.0 0.00 0.00 0.00 99 1019.2
20260510105344 52 172 0.0 0.0 0.00 0.00 0.00 99 1019.2
20260510104841 52 173 0.0 1.0 0.00 0.00 0.00 99 1019.2
20260510104338 52 172 0.0 1.0 0.00 0.00 0.00 99 1019.1
20260510103834 52 172 0.0 0.0 0.00 0.00 0.00 99 1019.0
20260510103331 51 172 0.0 0.0 0.00 0.00 0.00 99 1018.8
20260510102827 51 172 0.0 0.0 0.00 0.00 0.00 99 1018.8
20260510102323 51 172 0.0 0.0 0.00 0.00 0.00 99 1018.8
20260510101820 52 172 0.0 0.0 0.00 0.00 0.00 99 1018.8
20260510101318 52 172 0.0 0.0 0.00 0.00 0.00 99 1018.9
20260510100814 52 172 0.0 0.0 0.00 0.00 0.00 99 1018.8
20260510100312 51 172 0.0 0.0 0.00 0.00 0.00 99 1018.7
20260510095808 51 172 0.0 0.0 0.00 0.00 0.00 99 1018.6
20260510095305 51 172 0.0 0.0 0.00 0.00 0.00 99 1018.2
20260510094802 52 172 0.0 0.0 0.00 0.00 0.00 99 1018.4
20260510094258 52 172 0.0 0.0 0.00 0.00 0.00 99 1018.3
20260510093754 52 173 0.0 0.0 0.00 0.00 0.00 99 1018.1
20260510093251 52 172 0.0 0.0 0.00 0.00 0.00 99 1018.1
20260510092747 52 170 0.0 0.0 0.00 0.00 0.00 99 1018.3
20260510092243 52 169 0.0 0.0 0.00 0.00 0.00 99 1018.3
20260510091739 52 169 0.0 0.0 0.00 0.00 0.00 99 1018.2
20260510091236 52 164 0.0 0.0 0.00 0.00 0.00 99 1017.9
20260510090732 52 163 0.0 0.0 0.00 0.00 0.00 99 1018.0
20260510090230 52 140 0.0 0.0 0.00 0.00 0.00 99 1018.2
20260510085725 52 134 0.0 0.0 0.00 0.00 0.00 99 1018.1
20260510085219 52 178 0.0 0.0 0.00 0.00 0.00 99 1018.2
20260510084716 52 176 0.0 0.0 0.00 0.00 0.00 99 1018.1
20260510084213 52 175 0.0 0.0 0.00 0.00 0.00 99 1018.0
20260510083710 52 175 0.0 0.0 0.00 0.00 0.00 99 1018.0
20260510083207 52 175 0.0 0.0 0.00 0.00 0.00 99 1017.9
20260510082702 52 176 0.0 0.0 0.00 0.00 0.00 99 1017.9
20260510082158 52 175 0.0 0.0 0.00 0.00 0.00 99 1018.1
20260510081653 52 176 0.0 0.0 0.00 0.00 0.00 99 1017.8
20260510081149 52 174 0.0 0.0 0.00 0.00 0.00 99 1017.9
20260510080648 52 175 0.0 0.0 0.00 0.00 0.00 99 1017.8
20260510080146 52 174 0.0 0.0 0.00 0.00 0.00 99 1018.0
20260510075642 52 174 0.0 0.0 0.00 0.00 0.00 99 1018.0
20260510075140 52 175 0.0 0.0 0.00 0.00 0.00 99 1017.9
20260510074637 52 174 0.0 0.0 0.00 0.00 0.00 99 1018.0
20260510074132 52 174 0.0 0.0 0.00 0.00 0.00 99 1018.0
20260510073629 52 174 0.0 0.0 0.00 0.00 0.00 99 1018.0
20260510073125 53 175 0.0 0.0 0.00 0.00 0.00 99 1018.1
20260510072622 52 172 0.0 0.0 0.00 0.00 0.00 99 1018.0
20260510072118 52 172 0.0 0.0 0.00 0.00 0.00 99 1018.1
20260510071614 53 168 0.0 0.0 0.00 0.00 0.00 99 1018.0
20260510071112 53 164 0.0 0.0 0.00 0.00 0.00 99 1017.9
20260510070609 52 170 0.0 0.0 0.00 0.00 0.00 99 1017.8
20260510070107 52 170 0.0 0.0 0.00 0.00 0.00 99 1017.8
20260510065602 53 170 0.0 0.0 0.00 0.00 0.00 99 1017.8
20260510065059 53 170 0.0 0.0 0.00 0.00 0.00 99 1017.7
20260510064555 53 169 0.0 0.0 0.00 0.00 0.00 99 1017.6
20260510064052 53 167 0.0 0.0 0.00 0.00 0.00 99 1017.7
20260510063549 53 168 0.0 0.0 0.00 0.00 0.00 99 1017.6
20260510063046 53 166 0.0 0.0 0.00 0.00 0.00 99 1017.5
20260510062542 53 159 0.0 0.0 0.00 0.00 0.00 99 1017.4
20260510062037 53 173 0.0 0.0 0.00 0.00 0.00 99 1017.5
20260510061534 53 173 0.0 0.0 0.00 0.00 0.00 99 1017.5
20260510061030 53 173 0.0 0.0 0.00 0.00 0.00 99 1017.4
20260510060527 53 173 0.0 0.0 0.00 0.00 0.00 99 1017.5
20260510060023 53 172 0.0 0.0 0.00 0.00 0.00 99 1017.5
20260510055519 53 172 0.0 0.0 0.00 0.00 0.00 99 1017.5
20260510055018 53 167 0.0 0.0 0.00 0.00 0.00 99 1017.6
20260510054513 53 149 0.0 0.0 0.00 0.00 0.00 99 1017.5
20260510054008 53 171 0.0 0.0 0.00 0.00 0.00 99 1017.5
20260510053503 53 177 0.0 0.0 0.00 0.00 0.00 99 1017.2
20260510053000 54 174 0.0 0.0 0.00 0.00 0.00 99 1017.4
20260510052456 53 160 0.0 0.0 0.00 0.00 0.00 99 1017.4
20260510051952 53 183 0.0 0.0 0.00 0.00 0.00 99 1017.5
20260510051448 53 169 0.0 0.0 0.00 0.00 0.00 99 1017.4
20260510050944 54 175 0.0 0.0 0.00 0.00 0.00 99 1017.2
20260510050442 54 176 0.0 0.0 0.00 0.00 0.00 99 1017.2
20260510045939 54 173 0.0 0.0 0.00 0.00 0.00 99 1017.4
20260510045436 54 174 0.0 0.0 0.00 0.00 0.00 99 1017.4
20260510044933 54 187 0.0 0.0 0.00 0.00 0.00 99 1017.2
20260510044430 54 179 0.0 0.0 0.00 0.00 0.00 99 1017.4
20260510043926 54 177 0.0 0.0 0.00 0.00 0.00 99 1017.2
20260510043422 54 178 0.0 0.0 0.00 0.00 0.00 99 1017.2
20260510042921 54 178 0.0 0.0 0.00 0.00 0.00 98 1017.2
20260510042416 55 178 0.0 0.0 0.00 0.00 0.00 98 1017.2
20260510041912 55 178 0.0 0.0 0.00 0.00 0.00 98 1017.2
20260510041409 55 177 0.0 0.0 0.00 0.00 0.00 98 1017.5
20260510040907 55 177 0.0 0.0 0.00 0.00 0.00 98 1017.5
20260510040404 55 178 0.0 0.0 0.00 0.00 0.00 97 1017.4
20260510035859 55 178 0.0 0.0 0.00 0.00 0.00 97 1017.4
20260510035355 55 178 0.0 0.0 0.00 0.00 0.00 96 1017.4
20260510034851 56 178 0.0 0.0 0.00 0.00 0.00 96 1017.6
20260510034349 56 178 0.0 0.0 0.00 0.00 0.00 96 1017.6
20260510033845 56 177 0.0 0.0 0.00 0.00 0.00 96 1017.6
20260510033342 56 177 0.0 0.0 0.00 0.00 0.00 96 1017.6
20260510032838 56 177 0.0 0.0 0.00 0.00 0.00 96 1017.6
20260510032335 56 177 0.0 0.0 0.00 0.00 0.00 95 1017.5
20260510031831 56 177 0.0 0.0 0.00 0.00 0.00 95 1017.5
20260510031327 57 177 0.0 0.0 0.00 0.00 0.00 94 1017.7
20260510030827 57 177 0.0 0.0 0.00 0.00 0.00 94 1017.7
20260510030323 57 177 0.0 0.0 0.00 0.00 0.00 93 1017.6
20260510025820 57 177 0.0 0.0 0.00 0.00 0.00 93 1017.4
20260510025318 58 177 0.0 0.0 0.00 0.00 0.00 93 1017.4
20260510024814 58 176 0.0 0.0 0.00 0.00 0.00 92 1017.4
20260510024312 58 172 0.0 0.0 0.00 0.00 0.00 92 1017.1
20260510023808 58 172 0.0 0.0 0.00 0.00 0.00 92 1017.1
20260510023304 58 172 0.0 0.0 0.00 0.00 0.00 91 1017.1
20260510022801 59 172 0.0 0.0 0.00 0.00 0.00 90 1016.9
20260510022300 59 172 0.0 0.0 0.00 0.00 0.00 90 1016.9
20260510021800 59 172 0.0 0.0 0.00 0.00 0.00 89 1016.8
20260510021258 60 172 0.0 0.0 0.00 0.00 0.00 87 1016.8
20260510020754 60 172 0.0 0.0 0.00 0.00 0.00 86 1016.6
20260510020253 61 172 0.0 0.0 0.00 0.00 0.00 85 1016.5
20260510015750 61 172 0.0 0.0 0.00 0.00 0.00 84 1016.6
20260510015247 61 171 0.0 0.0 0.00 0.00 0.00 84 1016.3
20260510014741 61 171 0.0 0.0 0.00 0.00 0.00 84 1016.5
20260510014239 62 171 0.0 0.0 0.00 0.00 0.00 82 1016.2
20260510013735 63 171 0.0 0.0 0.00 0.00 0.00 81 1016.1
20260510013230 62 171 0.0 0.0 0.00 0.00 0.00 80 1016.1
20260510012725 63 171 0.0 0.0 0.00 0.00 0.00 78 1016.0
20260510012221 64 171 0.0 0.0 0.00 0.00 0.00 78 1015.9
20260510011720 64 169 0.0 0.0 0.00 0.00 0.00 76 1016.0
20260510011216 65 169 0.0 0.0 0.00 0.00 0.00 74 1015.8
20260510010713 65 169 0.0 0.0 0.00 0.00 0.00 74 1015.8
20260510010209 66 169 0.0 0.0 0.00 0.00 0.00 72 1015.7
20260510005706 66 169 0.0 0.0 0.00 0.00 0.00 72 1015.6
20260510005202 67 169 0.0 0.0 0.00 0.00 0.00 71 1015.7
20260510004701 68 169 0.0 0.0 0.00 0.00 0.00 69 1015.7
20260510004159 68 168 0.0 0.0 0.00 0.00 0.00 68 1015.5
20260510003656 69 167 0.0 0.0 0.00 0.00 0.00 65 1015.4
20260510003152 69 167 0.0 0.0 0.00 0.00 0.00 64 1015.2
20260510002651 70 167 0.0 0.0 0.00 0.00 0.00 63 1015.4
20260510002149 71 167 0.0 0.0 0.00 0.00 0.00 61 1015.1
20260510001646 72 164 0.0 0.0 0.00 0.00 0.00 59 1015.3
20260510001144 73 164 0.0 0.0 0.00 0.00 0.00 55 1015.1
20260510000644 73 164 0.0 0.0 0.00 0.00 0.00 55 1015.2
20260510000142 74 164 0.0 0.0 0.00 0.00 0.00 54 1015.2
20260509235638 75 164 0.0 0.0 0.00 0.00 0.00 50 1015.0
20260509235135 75 163 0.0 0.0 0.00 0.00 0.00 49 1015.0
20260509234631 76 165 0.0 0.0 0.00 0.00 0.00 49 1015.2
20260509234129 77 164 0.0 0.0 0.00 0.00 0.00 46 1015.0
20260509233626 77 161 0.0 0.0 0.00 0.00 0.00 46 1015.1
20260509233124 77 143 0.0 1.0 0.00 0.00 0.00 45 1015.2
20260509232620 78 153 0.0 1.0 0.00 0.00 0.00 44 1015.0
20260509232117 78 114 1.0 1.0 0.00 0.00 0.00 45 1015.0
20260509231613 78 138 1.0 1.0 0.00 0.00 0.00 44 1015.0
20260509231111 78 84 1.0 1.0 0.00 0.00 0.00 42 1014.9
20260509230608 78 134 1.0 1.0 0.00 0.00 0.00 43 1014.9
20260509230105 78 128 1.0 2.0 0.00 0.00 0.00 43 1014.8
20260509225600 78 161 0.0 5.0 0.00 0.00 0.00 43 1014.6
20260509225056 79 57 3.0 6.0 0.00 0.00 0.00 41 1014.8
20260509224551 79 72 3.0 3.0 0.00 0.00 0.00 42 1014.6
20260509224049 79 83 1.0 5.0 0.00 0.00 0.00 44 1014.4
20260509223546 79 59 2.0 3.0 0.00 0.00 0.00 44 1014.7
20260509223043 79 78 3.0 5.0 0.00 0.00 0.00 42 1014.6
20260509222539 80 75 2.0 5.0 0.00 0.00 0.00 44 1014.5
20260509222036 80 170 0.0 0.0 0.00 0.00 0.00 43 1014.6
20260509221531 81 62 3.0 5.0 0.00 0.00 0.00 42 1014.7
20260509221027 83 167 0.0 0.0 0.00 0.00 0.00 40 1014.6
20260509220523 83 177 0.0 1.0 0.00 0.00 0.00 39 1014.8
20260509220020 82 167 0.0 1.0 0.00 0.00 0.00 41 1015.0
20260509215515 84 113 1.0 3.0 0.00 0.00 0.00 42 1014.7
20260509215013 84 161 0.0 1.0 0.00 0.00 0.00 40 1014.5
20260509214510 84 190 1.0 3.0 0.00 0.00 0.00 39 1014.8
20260509214007 83 162 0.0 1.0 0.00 0.00 0.00 39 1014.7
20260509213502 82 173 0.0 2.0 0.00 0.00 0.00 40 1014.8
20260509213000 82 187 0.0 1.0 0.00 0.00 0.00 41 1014.7
20260509212457 81 160 0.0 2.0 0.00 0.00 0.00 41 1014.8
20260509211953 80 63 2.0 5.0 0.00 0.00 0.00 41 1014.8
20260509211448 81 34 3.0 6.0 0.00 0.00 0.00 41 1015.0
20260509210946 83 62 4.0 6.0 0.00 0.00 0.00 40 1015.0
20260509210443 81 127 1.0 2.0 0.00 0.00 0.00 40 1014.8
20260509205938 82 45 3.0 5.0 0.00 0.00 0.00 40 1015.0
20260509205433 83 45 2.0 2.0 0.00 0.00 0.00 41 1014.8
20260509204929 81 62 2.0 3.0 0.00 0.00 0.00 42 1014.7
20260509204425 81 109 2.0 3.0 0.00 0.00 0.00 40 1015.0
20260509203922 84 32 3.0 6.0 0.00 0.00 0.00 39 1014.7
20260509203418 81 170 0.0 2.0 0.00 0.00 0.00 39 1014.9
20260509202916 82 84 2.0 5.0 0.00 0.00 0.00 38 1014.9
20260509202412 83 59 5.0 7.0 0.00 0.00 0.00 39 1014.9
20260509201907 85 178 0.0 1.0 0.00 0.00 0.00 43 1014.9
20260509201402 82 179 0.0 3.0 0.00 0.00 0.00 44 1014.9
20260509200900 83 178 3.0 5.0 0.00 0.00 0.00 42 1014.8
20260509200359 80 162 0.0 1.0 0.00 0.00 0.00 43 1015.0
20260509195856 80 95 2.0 3.0 0.00 0.00 0.00 44 1015.3
20260509195356 81 46 3.0 3.0 0.00 0.00 0.00 43 1015.1
20260509194856 82 68 2.0 7.0 0.00 0.00 0.00 44 1015.2
20260509194353 81 113 2.0 7.0 0.00 0.00 0.00 42 1015.2
20260509193850 82 159 0.0 3.0 0.00 0.00 0.00 39 1015.2
20260509193349 81 123 1.0 5.0 0.00 0.00 0.00 42 1015.2
20260509192846 82 136 0.0 1.0 0.00 0.00 0.00 43 1015.3
20260509192342 84 70 4.0 5.0 0.00 0.00 0.00 41 1015.2
20260509191837 85 160 0.0 2.0 0.00 0.00 0.00 47 1015.2
20260509191333 82 178 0.0 1.0 0.00 0.00 0.00 46 1015.4
20260509190830 83 146 0.0 1.0 0.00 0.00 0.00 42 1015.3